Location: Austin
(30.3000°N, 97.7500°W)
Time: 02:28:37
(UTC-06:00)

H-2A R/B - Pass Details

Date: 20 November 2023
Orbit: 154 x 7432 km, 31.8° (Epoch: 05 December)

Event Time Altitude Azimuth Distance (km) Brightness Sun altitude
Rises 18:49:25 0° 263° (W) 2,315 6.3 -16.7°
Reaches altitude 10° 18:50:46 10° 264° (W) 1,734 5.2 -16.9°
Maximum altitude 18:54:27 84° 352° (N) 900 2.3 -17.7°
Enters shadow 18:59:50 26° 80° (E) 2,736 4.2 -18.8°
